Regional Weather Roundup
Issued by NWS Little Rock, AR

Home | Current Version | Previous Version | Graphics & Text | Print | Product List | Glossary On
Versions: 1 2 3 4 5 6 7 8 9 10 11 12 13 14 15 16 17 18 19 20 21 22 23 24 25 26 27 28 29 30 31 32 33 34 35 36 37 38 39 40 41 42 43 44 45 46 47 48 49 50
000
ASUS44 KLZK 242005
RWRLZK

WEATHER ROUNDUP FOR ARKANSAS
NATIONAL WEATHER SERVICE LITTLE ROCK AR
300 PM CDT SUN MAY 24 2015

NOTE: "FAIR" INDICATES FEW OR NO CLOUDS BELOW 12,000 FEET WITH NO
SIGNIFICANT WEATHER AND/OR OBSTRUCTIONS TO VISIBILITY.

ARZ001-003-010-029-242100-
NORTHWEST ARKANSAS

CITY           SKY/WX    TMP DP  RH WIND       PRES   REMARKS
FAYETTEVILLE   RAIN      63  63 100 MISG      29.93F FOG
FORT SMITH     LGT RAIN  66  63  90 N6        29.88F
HARRISON       LGT RAIN  73  66  78 S12       29.93F
BENTONVILLE    CLOUDY    66  61  82 S6        29.94S
ROGERS         LGT RAIN  65  62  90 CALM      29.94F
SILOAM SPGS    CLOUDY    64  57  77 SE9       29.95F
HIGHFILL       LGT RAIN  66  32  28 S7        29.93F
SPRINGDALE     LGT RAIN  64  63  94 S13       29.96F FOG
$$

ARZ004-005-016-242100-
NORTH CENTRAL ARKANSAS

CITY           SKY/WX    TMP DP  RH WIND       PRES   REMARKS
BATESVILLE     PTSUNNY   84  68  58 SE14G23   29.94F HX  87
FLIPPIN          N/A     79  66  65 S6        29.91S
MTN HOME       CLOUDY    79  66  64 S13G21    29.92F
$$

ARZ040-041-242100-
WEST CENTRAL ARKANSAS

CITY           SKY/WX    TMP DP  RH WIND       PRES   REMARKS
MENA           CLOUDY    72  68  88 SE14G28   29.89S
MOUNT IDA      HVY RAIN  73  70  88 SE10G17   29.88F
$$

ARZ009-017-025-026-028-242100-
NORTHEAST ARKANSAS

CITY           SKY/WX    TMP DP  RH WIND       PRES   REMARKS
CORNING          N/A     84  68  58 S18       29.98F HX  87
JONESBORO      CLOUDY    83  70  64 SE17G28   29.97F HX  87
NEWPORT        LGT RAIN  83  68  60 SE21G32   29.96F HX  86
WALNUT RIDGE   CLOUDY    82  66  57 S23       29.96F HX  85
BLYTHEVILLE    PTSUNNY   84  68  58 S20G26    30.01F HX  87
$$

ARZ022-023-033-042-044-242100-
CENTRAL ARKANSAS

CITY           SKY/WX    TMP DP  RH WIND       PRES   REMARKS
LITTLE ROCK    PTSUNNY   84  67  56 S15G25    29.91F HX  86
N LITTLE ROCK  PTSUNNY   82  72  72 S9G26     29.91F HX  86
JACKSONVILLE   PTSUNNY   82  71  68 SE10G20   29.92F HX  87
SEARCY         PTSUNNY   82  74  76 S14G23    29.95F HX  88
HOT SPRINGS    TSTM      77  69  76 SE17G36   29.91F
RUSSELLVILLE   CLOUDY    79  70  74 E5        29.89F
CLINTON        FAIR      81  70  69 S10G17    29.93F
$$

ARZ036-242100-
EAST ARKANSAS

CITY           SKY/WX    TMP DP  RH WIND       PRES   REMARKS
WEST MEMPHIS   PTSUNNY   85  71  63 S18       29.99F HX  90
$$

ARZ050-053-066-070-073-242100-
SOUTHWEST ARKANSAS

CITY           SKY/WX    TMP DP  RH WIND       PRES   REMARKS
ARKADELPHIA    TSTM      76  74  93 S14       29.94R FOG
CAMDEN         LGT RAIN  72  66  83 NE15G52   29.95R VSB<1/4
TEXARKANA      CLOUDY    75  69  81 S14       29.91F
EL DORADO      LGT RAIN  70  68  93 S8        29.96F
DE QUEEN       CLOUDY    73  69  87 S14G23    29.86R
$$

ARZ056-057-069-242100-
SOUTHEAST ARKANSAS

CITY           SKY/WX    TMP DP  RH WIND       PRES   REMARKS
PINE BLUFF     PTSUNNY   83  72  69 S13       29.94F HX  88
STUTTGART      PTSUNNY   84  70  61 S23       29.95F HX  88
MONTICELLO     PTSUNNY   84  72  67 S13G20    29.95F HX  89

$$




USA.gov is the U.S. government's official web portal to all federal, state and local government web resources and services.